Tracking 28126 objects as of 1-Oct-2023
HD Live streaming from Space Station
objects crossing your sky now

DELTA 1 DEB

Track DELTA 1 DEB now!
10-day predictions


NORAD ID: 10643
Int'l Code: 1976-077D
Perigee: 1,506.7 km
Apogee: 1,778.4 km
Inclination: 102.0 °
Period: 119.0 minutes
Semi major axis: 8013 km
RCS: 0.0787 m2 (small)
Launch date: July 29, 1976
Source: United States (US)
Launch site: AIR FORCE WESTERN TEST RANGE (AFWTR)

Note: This is SATELLITE DEBRIS
Your satellite tracking list
Your tracking list is empty




NASA's NSSDC Master Catalog

Two Line Element Set (TLE):
1 10643U 76077D   23273.61451008  .00000017  00000-0  61239-3 0  9995
2 10643 102.0282 281.2462 0169523 305.3850 178.8026 12.10223865 84662
Source of the keplerian elements: AFSPC